Overview Statistics Trail Chart Weather Telemetry Raw packets
 

This is the latest recevied weather packets stored in our database for station/object KB1YTR-1. If no packets are shown the sender has not sent any weather packets the latest 10 day(s).

<< 38 39 40 41 42 43 44 >>
Time Temp. Humidity Pressure Rain* Wind** Luminosity Snow
1787899395 14.44° C 82% 1019.3 hPa 0 mm - - -
1787898543 15.56° C 77% 1019 hPa 0 mm - - -
1787897701 15.56° C 77% 1018.8 hPa 0 mm - - -
1787896945 15° C 78% 1018.7 hPa 0 mm - - -
1787896100 15° C 78% 1018.5 hPa 0 mm - - -
1787895205 15° C 78% 1018.3 hPa 0 mm - - -
1787894375 15° C 79% 1018.3 hPa 0 mm - - -
1787893510 15° C 79% 1018.2 hPa 0 mm - - -
1787892758 15° C 80% 1018.3 hPa 0 mm - - -
1787891910 15° C 80% 1018.2 hPa 0 mm - - -
1787891105 15.56° C 81% 1018.1 hPa 0 mm - - -
1787890290 16.11° C 79% 1018 hPa 0 mm - - -
1787889450 15.56° C 82% 1018 hPa 0 mm - - -
1787888610 16.11° C 82% 1018 hPa 0 mm - - -
1787887765 16.11° C 82% 1018 hPa 0 mm - - -
1787886955 16.67° C 81% 1018 hPa 0 mm - - -
1787886085 16.67° C 81% 1017.8 hPa 0 mm - - -
1787885230 16.67° C 81% 1018.2 hPa 0 mm - - -
1787884405 16.67° C 81% 1018 hPa 0 mm - - -
1787883569 16.67° C 80% 1017.9 hPa 0 mm - - -
1787882790 16.67° C 79% 1017.9 hPa 0 mm - - -
1787881970 17.22° C 78% 1017.7 hPa 0 mm - - -
1787881231 17.22° C 77% 1017.6 hPa 0 mm - - -
1787880460 17.22° C 77% 1017.3 hPa 0 mm - - -
1787879595 17.78° C 76% 1017.2 hPa 0 mm - - -

* Rain latest hour (hover to see other rain measurements)
** Current wind speed in m/s (hover to see current wind gust speed)